Location: Ch�tillon
(48.8024°N, 2.2935°E)
Time: 18:29:39
(UTC+00:00)

XW-2A - Pass Details

Date: 08 July 2022
Orbit: 396 x 406 km, 97.2° (Epoch: 07 August)

Event Time Altitude Azimuth Distance (km) Brightness Sun altitude
Exits shadow 21:34:30 - 208° (SSW) 1,905 ? -12.1°
Reaches altitude 10° 21:35:54 10° 222° (SW) 1,442 ? -12.2°
Maximum altitude 21:38:03 17° 267° (W) 1,084 ? -12.4°
Drops below altitude 10° 21:40:13 10° 311° (NW) 1,453 ? -12.6°
Sets 21:42:40 0° 332° (NNW) 2,319 ? -12.8°
